Time,TemperatureF,DewpointF,PressureIn,WindDirection,WindDirectionDegrees,WindSpeedMPH,WindSpeedGustMPH,Humidity,HourlyPrecipIn,Conditions,Clouds,dailyrainin,SoftwareType,DateUTC
2013-04-13 00:00:00,45.6,29.4,27.14,NNW,337,13.3,17.2,52,0.00,--,--,0.00,awk and wget,2013-04-13 04:00:00,
2013-04-13 00:05:00,45.3,29.5,27.14,NNW,335,6.8,17.2,53,0.00,--,--,0.00,awk and wget,2013-04-13 04:05:00,
2013-04-13 00:10:00,45.1,29.3,27.14,NNW,339,1.2,17.2,53,0.00,--,--,0.00,awk and wget,2013-04-13 04:10:00,
2013-04-13 00:15:00,45.6,29.1,27.14,NNW,333,4.4,14.2,52,0.00,--,--,0.00,awk and wget,2013-04-13 04:15:00,
2013-04-13 00:20:00,46.0,28.8,27.14,NNW,339,16.7,17.0,50,0.00,--,--,0.00,awk and wget,2013-04-13 04:20:00,
2013-04-13 00:25:00,45.8,28.8,27.14,NNW,337,17.7,18.2,51,0.00,--,--,0.00,awk and wget,2013-04-13 04:25:00,
2013-04-13 00:30:00,46.2,28.7,27.14,NNW,343,15.6,18.2,50,0.00,--,--,0.00,awk and wget,2013-04-13 04:30:00,
2013-04-13 00:40:00,45.7,28.6,27.14,NNW,345,8.9,22.3,51,0.00,--,--,0.00,awk and wget,2013-04-13 04:40:00,
2013-04-13 00:45:00,45.5,28.7,27.14,NNW,347,6.9,22.3,51,0.00,--,--,0.00,awk and wget,2013-04-13 04:45:00,
2013-04-13 00:50:00,45.8,28.8,27.15,NNW,345,15.2,24.6,51,0.00,--,--,0.00,awk and wget,2013-04-13 04:50:00,
2013-04-13 01:00:00,45.7,28.9,27.14,NNW,337,15.0,36.1,51,0.00,--,--,0.00,awk and wget,2013-04-13 05:00:00,
2013-04-13 01:10:00,45.8,28.5,27.14,NNW,337,17.8,23.8,50,0.00,--,--,0.00,awk and wget,2013-04-13 05:10:00,
2013-04-13 01:15:00,45.8,28.7,27.14,NNW,337,9.3,23.8,51,0.00,--,--,0.00,awk and wget,2013-04-13 05:15:00,
2013-04-13 01:20:00,45.8,28.7,27.13,NNW,340,6.0,23.8,51,0.00,--,--,0.00,awk and wget,2013-04-13 05:20:00,
2013-04-13 01:30:00,46.0,28.7,27.12,NNW,340,34.1,38.0,50,0.00,--,--,0.00,awk and wget,2013-04-13 05:30:00,
2013-04-13 01:40:00,45.9,29.4,27.14,NNW,331,27.0,29.5,52,0.00,--,--,0.00,awk and wget,2013-04-13 05:40:00,
2013-04-13 01:45:00,46.0,29.3,27.13,NNW,337,17.4,28.8,51,0.00,--,--,0.00,awk and wget,2013-04-13 05:45:00,
2013-04-13 01:50:00,46.0,29.5,27.14,NNW,335,14.9,28.8,52,0.00,--,--,0.00,awk and wget,2013-04-13 05:50:00,
2013-04-13 01:55:00,45.8,29.6,27.13,NNW,341,15.3,24.0,52,0.00,--,--,0.00,awk and wget,2013-04-13 05:55:00,
2013-04-13 02:00:00,45.7,29.9,27.13,NNW,336,22.8,34.3,53,0.00,--,--,0.00,awk and wget,2013-04-13 06:00:00,
2013-04-13 02:10:00,45.6,29.6,27.13,NNW,341,16.0,34.3,53,0.00,--,--,0.00,awk and wget,2013-04-13 06:10:00,
2013-04-13 02:15:00,45.3,29.8,27.13,NNW,332,16.1,23.5,54,0.00,--,--,0.00,awk and wget,2013-04-13 06:15:00,
2013-04-13 02:20:00,45.7,29.6,27.13,NNW,336,20.6,29.9,53,0.00,--,--,0.00,awk and wget,2013-04-13 06:20:00,
2013-04-13 02:30:00,45.4,29.7,27.13,NNW,332,10.3,38.7,53,0.00,--,--,0.00,awk and wget,2013-04-13 06:30:00,
2013-04-13 02:35:00,45.4,30.0,27.13,NNW,338,10.6,38.7,54,0.00,--,--,0.00,awk and wget,2013-04-13 06:35:00,
2013-04-13 02:40:00,45.5,29.6,27.12,North,2,8.4,38.7,53,0.00,--,--,0.00,awk and wget,2013-04-13 06:40:00,
2013-04-13 02:45:00,45.5,29.7,27.12,NNW,332,12.6,23.8,53,0.00,--,--,0.00,awk and wget,2013-04-13 06:45:00,
2013-04-13 02:51:00,45.5,29.5,27.12,NNW,336,12.3,23.8,53,0.00,--,--,0.00,awk and wget,2013-04-13 06:51:00,
2013-04-13 03:00:00,45.1,30.0,27.13,NNW,332,8.2,24.4,55,0.00,--,--,0.00,awk and wget,2013-04-13 07:00:00,
2013-04-13 03:10:00,45.0,30.4,27.13,NNW,337,6.4,22.8,56,0.00,--,--,0.00,awk and wget,2013-04-13 07:10:00,
2013-04-13 03:20:00,45.0,30.3,27.12,NNW,331,6.9,18.4,56,0.00,--,--,0.00,awk and wget,2013-04-13 07:20:00,
2013-04-13 03:30:00,45.1,30.2,27.13,NNW,333,11.0,20.0,55,0.00,--,--,0.00,awk and wget,2013-04-13 07:30:00,
2013-04-13 03:40:00,44.7,30.8,27.13,NNW,337,5.7,20.0,57,0.00,--,--,0.00,awk and wget,2013-04-13 07:40:00,
2013-04-13 03:50:00,44.6,31.0,27.12,NNW,337,7.3,22.7,58,0.00,--,--,0.00,awk and wget,2013-04-13 07:50:00,
2013-04-13 04:00:00,44.2,31.0,27.13,NNW,333,4.6,24.2,59,0.00,--,--,0.00,awk and wget,2013-04-13 08:00:00,
2013-04-13 04:10:00,44.6,30.9,27.13,NNW,342,8.9,24.2,58,0.00,--,--,0.00,awk and wget,2013-04-13 08:10:00,
2013-04-13 04:21:00,44.3,30.9,27.13,NNW,339,10.5,28.6,59,0.00,--,--,0.00,awk and wget,2013-04-13 08:21:00,
2013-04-13 04:30:00,44.4,30.9,27.13,NNW,346,4.1,17.0,58,0.00,--,--,0.00,awk and wget,2013-04-13 08:30:00,
2013-04-13 04:41:00,44.2,31.2,27.13,NNW,335,15.7,15.7,60,0.00,--,--,0.00,awk and wget,2013-04-13 08:41:00,
2013-04-13 04:50:00,44.3,31.0,27.14,NNW,337,14.5,15.9,59,0.00,--,--,0.00,awk and wget,2013-04-13 08:50:00,
2013-04-13 04:56:00,44.3,31.1,27.14,North,352,7.7,15.9,59,0.00,--,--,0.00,awk and wget,2013-04-13 08:56:00,
2013-04-13 05:07:00,44.4,30.6,27.14,NNW,334,2.3,16.7,58,0.00,--,--,0.00,awk and wget,2013-04-13 09:07:00,
2013-04-13 05:15:00,44.3,30.9,27.15,North,353,7.5,29.3,59,0.00,--,--,0.00,awk and wget,2013-04-13 09:15:00,
2013-04-13 05:20:00,44.1,30.8,27.15,NNW,337,8.4,29.3,59,0.00,--,--,0.00,awk and wget,2013-04-13 09:20:00,
2013-04-13 05:30:00,44.1,30.7,27.15,NNW,334,7.4,24.4,58,0.00,--,--,0.00,awk and wget,2013-04-13 09:30:00,
2013-04-13 05:36:00,43.9,31.0,27.15,NNW,339,6.2,24.4,60,0.00,--,--,0.00,awk and wget,2013-04-13 09:36:00,
2013-04-13 05:45:00,43.6,30.9,27.15,NNW,336,2.9,16.6,60,0.00,--,--,0.00,awk and wget,2013-04-13 09:45:00,
2013-04-13 05:50:00,43.4,31.0,27.15,North,350,5.7,16.6,61,0.00,--,--,0.00,awk and wget,2013-04-13 09:50:00,
2013-04-13 06:00:00,43.0,30.6,27.15,North,354,7.3,14.1,61,0.00,--,--,0.00,awk and wget,2013-04-13 10:00:00,
2013-04-13 06:10:00,42.4,30.1,27.15,NNE,22,7.8,17.0,61,0.00,--,--,0.00,awk and wget,2013-04-13 10:10:00,
2013-04-13 06:20:00,42.4,29.9,27.15,NNW,334,18.2,18.2,60,0.00,--,--,0.00,awk and wget,2013-04-13 10:20:00,
2013-04-13 06:30:00,42.0,29.8,27.16,NNW,344,9.5,17.0,61,0.00,--,--,0.00,awk and wget,2013-04-13 10:30:00,
2013-04-13 06:40:00,41.9,29.6,27.16,NNW,337,5.7,17.0,61,0.00,--,--,0.00,awk and wget,2013-04-13 10:40:00,
2013-04-13 06:46:00,41.8,29.6,27.16,NNW,337,10.3,12.7,61,0.00,--,--,0.00,awk and wget,2013-04-13 10:46:00,
2013-04-13 06:55:00,41.2,29.8,27.17,North,5,8.6,10.8,63,0.00,--,--,0.00,awk and wget,2013-04-13 10:55:00,
2013-04-13 07:00:00,41.4,29.1,27.17,NNW,337,4.7,10.8,61,0.00,--,--,0.00,awk and wget,2013-04-13 11:00:00,
2013-04-13 07:11:00,41.3,29.1,27.17,NNE,12,3.9,9.0,61,0.00,--,--,0.00,awk and wget,2013-04-13 11:11:00,
2013-04-13 07:22:00,41.4,29.6,27.18,NNW,332,6.9,28.6,62,0.00,--,--,0.00,awk and wget,2013-04-13 11:22:00,
2013-04-13 07:32:00,41.6,29.7,27.18,NNW,337,6.0,28.6,62,0.00,--,--,0.00,awk and wget,2013-04-13 11:32:00,
2013-04-13 07:40:00,42.5,29.6,27.18,NNW,333,6.3,15.9,59,0.00,--,--,0.00,awk and wget,2013-04-13 11:40:00,
2013-04-13 07:45:00,41.9,29.7,27.18,NNW,332,15.3,15.9,61,0.00,--,--,0.00,awk and wget,2013-04-13 11:45:00,
2013-04-13 07:50:00,42.0,29.4,27.19,NNW,337,11.6,15.9,60,0.00,--,--,0.00,awk and wget,2013-04-13 11:50:00,
2013-04-13 08:00:00,42.2,29.1,27.19,SSE,156,1.6,20.2,59,0.00,--,--,0.00,awk and wget,2013-04-13 12:00:00,
2013-04-13 08:10:00,42.2,29.1,27.19,NNW,333,9.7,20.5,59,0.00,--,--,0.00,awk and wget,2013-04-13 12:10:00,
2013-04-13 08:15:00,42.4,29.6,27.19,NNW,331,9.6,24.4,60,0.00,--,--,0.00,awk and wget,2013-04-13 12:15:00,
2013-04-13 08:20:00,42.4,29.3,27.19,NNW,332,5.3,24.4,59,0.00,--,--,0.00,awk and wget,2013-04-13 12:20:00,
2013-04-13 08:32:00,42.5,29.1,27.19,NNW,332,9.7,21.4,58,0.00,--,--,0.00,awk and wget,2013-04-13 12:32:00,
2013-04-13 08:40:00,43.2,28.9,27.19,NNW,337,11.2,26.3,56,0.00,--,--,0.00,awk and wget,2013-04-13 12:40:00,
2013-04-13 08:45:00,43.4,29.1,27.19,NNW,331,15.1,26.3,56,0.00,--,--,0.00,awk and wget,2013-04-13 12:45:00,
2013-04-13 08:51:00,43.5,28.9,27.19,NNW,331,25.9,26.5,56,0.00,--,--,0.00,awk and wget,2013-04-13 12:51:00,
2013-04-13 09:01:00,44.8,29.1,27.20,NNW,337,8.4,29.2,53,0.00,--,--,0.00,awk and wget,2013-04-13 13:01:00,
2013-04-13 09:12:00,44.4,28.9,27.20,NNW,333,8.0,29.2,54,0.00,--,--,0.00,awk and wget,2013-04-13 13:12:00,
2013-04-13 09:21:00,45.6,29.3,27.20,NNW,337,5.3,24.7,52,0.00,--,--,0.00,awk and wget,2013-04-13 13:21:00,
2013-04-13 09:30:00,44.6,28.7,27.21,NNW,332,7.0,32.6,53,0.00,--,--,0.00,awk and wget,2013-04-13 13:30:00,
2013-04-13 09:35:00,45.2,29.1,27.21,NNW,335,7.8,32.6,53,0.00,--,--,0.00,awk and wget,2013-04-13 13:35:00,
2013-04-13 09:40:00,45.0,29.4,27.21,NNW,331,19.2,41.2,54,0.00,--,--,0.00,awk and wget,2013-04-13 13:40:00,
2013-04-13 09:45:00,44.0,28.4,27.21,NNW,331,5.5,41.2,53,0.00,--,--,0.00,awk and wget,2013-04-13 13:45:00,
2013-04-13 09:50:00,45.2,28.8,27.21,NNW,334,13.2,41.2,52,0.00,--,--,0.00,awk and wget,2013-04-13 13:50:00,
2013-04-13 10:00:00,44.3,28.6,27.21,NNW,339,11.0,21.6,53,0.00,--,--,0.00,awk and wget,2013-04-13 14:00:00,
2013-04-13 10:10:00,45.5,28.9,27.21,NNW,332,14.7,26.7,52,0.00,--,--,0.00,awk and wget,2013-04-13 14:10:00,
2013-04-13 10:20:00,45.3,28.8,27.21,North,349,10.9,26.4,52,0.00,--,--,0.00,awk and wget,2013-04-13 14:20:00,
2013-04-13 10:30:00,45.1,28.5,27.22,NNW,329,18.7,28.8,51,0.00,--,--,0.00,awk and wget,2013-04-13 14:30:00,
2013-04-13 10:40:00,45.5,28.2,27.22,NNW,339,16.8,29.8,50,0.00,--,--,0.00,awk and wget,2013-04-13 14:40:00,
2013-04-13 10:45:00,46.0,28.2,27.22,NNW,332,13.3,29.8,49,0.00,--,--,0.00,awk and wget,2013-04-13 14:45:00,
2013-04-13 10:50:00,46.5,28.1,27.22,NNW,333,17.5,31.6,48,0.00,--,--,0.00,awk and wget,2013-04-13 14:50:00,
2013-04-13 11:00:00,47.5,28.4,27.22,NNW,329,14.3,31.6,47,0.00,--,--,0.00,awk and wget,2013-04-13 15:00:00,
2013-04-13 11:10:00,47.0,28.1,27.22,NNW,336,15.3,24.1,47,0.00,--,--,0.00,awk and wget,2013-04-13 15:10:00,
2013-04-13 11:15:00,48.6,29.5,27.22,NNW,335,14.9,23.0,47,0.00,--,--,0.00,awk and wget,2013-04-13 15:15:00,
2013-04-13 11:20:00,47.2,27.9,27.21,NNW,328,13.6,21.8,46,0.00,--,--,0.00,awk and wget,2013-04-13 15:20:00,
2013-04-13 11:30:00,47.2,27.8,27.21,NNW,329,9.4,21.8,46,0.00,--,--,0.00,awk and wget,2013-04-13 15:30:00,
2013-04-13 11:40:00,48.4,28.0,27.21,NNW,330,18.1,21.0,44,0.00,--,--,0.00,awk and wget,2013-04-13 15:40:00,
2013-04-13 11:45:00,48.4,28.4,27.21,NNW,329,7.3,21.0,45,0.00,--,--,0.00,awk and wget,2013-04-13 15:45:00,
2013-04-13 11:50:00,49.2,28.5,27.21,NNW,329,13.2,19.8,44,0.00,--,--,0.00,awk and wget,2013-04-13 15:50:00,
2013-04-13 12:00:00,49.7,27.8,27.21,NNW,328,9.0,23.9,42,0.00,--,--,0.00,awk and wget,2013-04-13 16:00:00,
2013-04-13 12:10:00,50.6,28.2,27.21,NNW,328,2.9,23.9,41,0.00,--,--,0.00,awk and wget,2013-04-13 16:10:00,
2013-04-13 12:20:00,53.9,28.8,27.21,NNW,329,17.4,28.2,37,0.00,--,--,0.00,awk and wget,2013-04-13 16:20:00,
2013-04-13 12:30:00,53.0,27.9,27.20,NNW,329,22.2,28.2,37,0.00,--,--,0.00,awk and wget,2013-04-13 16:30:00,
2013-04-13 12:40:00,53.2,27.0,27.20,NNW,327,11.8,20.3,36,0.00,--,--,0.00,awk and wget,2013-04-13 16:40:00,
2013-04-13 12:50:00,53.9,27.7,27.19,NNW,328,11.4,21.6,36,0.00,--,--,0.00,awk and wget,2013-04-13 16:50:00,
2013-04-13 13:00:00,54.2,28.8,27.19,NNW,331,4.6,20.9,37,0.00,--,--,0.00,awk and wget,2013-04-13 17:00:00,
2013-04-13 13:10:00,54.7,25.7,27.18,NNW,329,3.9,19.4,32,0.00,--,--,0.00,awk and wget,2013-04-13 17:10:00,
2013-04-13 13:15:00,54.7,27.3,27.18,NNW,330,4.4,19.4,34,0.00,--,--,0.00,awk and wget,2013-04-13 17:15:00,
2013-04-13 13:20:00,57.3,28.7,27.18,NNW,327,6.0,30.3,33,0.00,--,--,0.00,awk and wget,2013-04-13 17:20:00,
2013-04-13 13:30:00,56.6,25.6,27.17,NNW,329,3.7,30.3,30,0.00,--,--,0.00,awk and wget,2013-04-13 17:30:00,
2013-04-13 13:40:00,55.6,26.2,27.17,NNW,331,11.9,18.0,32,0.00,--,--,0.00,awk and wget,2013-04-13 17:40:00,
2013-04-13 13:50:00,57.4,25.6,27.17,NW,326,8.6,17.9,29,0.00,--,--,0.00,awk and wget,2013-04-13 17:50:00,
2013-04-13 14:00:00,59.8,20.5,27.17,NNW,329,8.9,20.0,21,0.00,--,--,0.00,awk and wget,2013-04-13 18:00:00,
2013-04-13 14:10:00,58.2,18.6,27.17,NNW,344,11.3,23.3,21,0.00,--,--,0.00,awk and wget,2013-04-13 18:10:00,
2013-04-13 14:20:00,59.2,20.5,27.18,NNW,339,11.3,38.3,22,0.00,--,--,0.00,awk and wget,2013-04-13 18:20:00,
2013-04-13 14:30:00,60.6,21.4,27.18,NW,326,14.1,26.7,21,0.00,--,--,0.00,awk and wget,2013-04-13 18:30:00,
2013-04-13 14:40:00,59.4,22.1,27.17,NW,326,21.8,30.8,23,0.00,--,--,0.00,awk and wget,2013-04-13 18:40:00,
2013-04-13 14:45:00,58.7,23.1,27.17,NNW,327,31.6,31.6,25,0.00,--,--,0.00,awk and wget,2013-04-13 18:45:00,
2013-04-13 14:50:00,60.5,23.7,27.17,NNW,330,9.1,30.2,24,0.00,--,--,0.00,awk and wget,2013-04-13 18:50:00,
2013-04-13 15:00:00,60.0,22.9,27.17,NW,326,21.0,28.1,23,0.00,--,--,0.00,awk and wget,2013-04-13 19:00:00,
2013-04-13 15:10:00,60.1,23.1,27.18,NW,326,9.8,28.5,23,0.00,--,--,0.00,awk and wget,2013-04-13 19:10:00,
2013-04-13 15:15:00,59.7,23.6,27.17,NW,326,20.0,28.5,24,0.00,--,--,0.00,awk and wget,2013-04-13 19:15:00,
2013-04-13 15:20:00,59.2,23.8,27.17,NNW,328,16.6,28.5,25,0.00,--,--,0.00,awk and wget,2013-04-13 19:20:00,
2013-04-13 15:30:00,60.3,23.4,27.18,NNW,327,13.7,30.8,24,0.00,--,--,0.00,awk and wget,2013-04-13 19:30:00,
2013-04-13 15:40:00,60.3,23.4,27.18,NE,48,4.9,37.6,24,0.00,--,--,0.00,awk and wget,2013-04-13 19:40:00,
2013-04-13 15:45:00,58.5,22.6,27.18,NNW,328,17.4,37.6,24,0.00,--,--,0.00,awk and wget,2013-04-13 19:45:00,
2013-04-13 15:50:00,60.0,23.0,27.18,NNW,337,8.6,40.1,23,0.00,--,--,0.00,awk and wget,2013-04-13 19:50:00,
2013-04-13 16:00:00,59.1,23.4,27.18,NNW,327,10.0,40.1,25,0.00,--,--,0.00,awk and wget,2013-04-13 20:00:00,
2013-04-13 16:10:00,59.4,24.1,27.17,NW,326,5.5,38.5,25,0.00,--,--,0.00,awk and wget,2013-04-13 20:10:00,
2013-04-13 16:15:00,59.0,22.5,27.17,NNW,338,32.6,38.5,24,0.00,--,--,0.00,awk and wget,2013-04-13 20:15:00,
2013-04-13 16:20:00,60.1,23.5,27.18,NNW,337,23.0,32.3,24,0.00,--,--,0.00,awk and wget,2013-04-13 20:20:00,
2013-04-13 16:30:00,59.8,21.5,27.17,NNW,340,12.1,22.7,22,0.00,--,--,0.00,awk and wget,2013-04-13 20:30:00,
2013-04-13 16:40:00,60.3,22.0,27.17,NNW,340,18.7,22.7,22,0.00,--,--,0.00,awk and wget,2013-04-13 20:40:00,
2013-04-13 16:45:00,60.6,21.9,27.17,NNW,339,7.2,22.7,22,0.00,--,--,0.00,awk and wget,2013-04-13 20:45:00,
2013-04-13 16:50:00,60.4,21.9,27.17,NW,325,5.3,18.3,22,0.00,--,--,0.00,awk and wget,2013-04-13 20:50:00,
2013-04-13 17:00:00,60.1,22.9,27.17,NW,326,24.2,25.2,23,0.00,--,--,0.00,awk and wget,2013-04-13 21:00:00,
2013-04-13 17:10:00,60.1,22.2,27.17,NNW,330,6.5,27.8,22,0.00,--,--,0.00,awk and wget,2013-04-13 21:10:00,
2013-04-13 17:15:00,60.1,22.1,27.17,NNW,343,5.5,27.8,22,0.00,--,--,0.00,awk and wget,2013-04-13 21:15:00,
2013-04-13 17:20:00,59.6,21.5,27.17,NNW,330,10.5,23.2,22,0.00,--,--,0.00,awk and wget,2013-04-13 21:20:00,
2013-04-13 17:30:00,60.5,22.2,27.18,NNW,330,16.9,18.5,22,0.00,--,--,0.00,awk and wget,2013-04-13 21:30:00,
2013-04-13 17:35:00,59.9,21.2,27.17,NNE,12,1.8,20.2,22,0.00,--,--,0.00,awk and wget,2013-04-13 21:35:00,
2013-04-13 17:40:00,59.5,20.8,27.18,NNW,342,11.1,20.2,22,0.00,--,--,0.00,awk and wget,2013-04-13 21:40:00,
2013-04-13 17:50:00,60.0,20.9,27.18,NW,324,7.7,19.9,21,0.00,--,--,0.00,awk and wget,2013-04-13 21:50:00,
2013-04-13 18:00:00,59.0,20.2,27.18,NW,325,10.9,23.7,21,0.00,--,--,0.00,awk and wget,2013-04-13 22:00:00,
2013-04-13 18:10:00,59.4,20.9,27.18,NNW,329,9.4,23.7,22,0.00,--,--,0.00,awk and wget,2013-04-13 22:10:00,
2013-04-13 18:15:00,59.9,21.9,27.18,NNW,333,7.7,24.7,22,0.00,--,--,0.00,awk and wget,2013-04-13 22:15:00,
2013-04-13 18:20:00,59.0,21.0,27.18,NW,326,14.9,27.2,22,0.00,--,--,0.00,awk and wget,2013-04-13 22:20:00,
2013-04-13 18:30:00,58.5,20.2,27.19,NNW,336,17.7,27.2,22,0.00,--,--,0.00,awk and wget,2013-04-13 22:30:00,
2013-04-13 18:40:00,58.3,20.0,27.19,NNW,332,15.9,22.9,22,0.00,--,--,0.00,awk and wget,2013-04-13 22:40:00,
2013-04-13 18:45:00,58.0,20.4,27.19,NNW,335,16.2,22.9,22,0.00,--,--,0.00,awk and wget,2013-04-13 22:45:00,
2013-04-13 18:50:00,57.8,19.4,27.19,NNW,338,11.8,22.9,22,0.00,--,--,0.00,awk and wget,2013-04-13 22:50:00,
2013-04-13 18:55:00,57.7,19.6,27.20,NW,324,5.8,20.1,22,0.00,--,--,0.00,awk and wget,2013-04-13 22:55:00,
2013-04-13 19:00:00,57.7,19.4,27.20,NW,324,8.6,15.7,22,0.00,--,--,0.00,awk and wget,2013-04-13 23:00:00,
2013-04-13 19:10:00,57.1,19.1,27.20,NW,325,10.0,18.8,22,0.00,--,--,0.00,awk and wget,2013-04-13 23:10:00,
2013-04-13 19:15:00,56.7,16.4,27.20,NNW,330,4.9,18.8,20,0.00,--,--,0.00,awk and wget,2013-04-13 23:15:00,
2013-04-13 19:20:00,56.4,17.2,27.20,North,3,4.5,18.8,21,0.00,--,--,0.00,awk and wget,2013-04-13 23:20:00,
2013-04-13 19:25:00,56.3,16.1,27.20,NNW,331,9.1,18.8,20,0.00,--,--,0.00,awk and wget,2013-04-13 23:25:00,
2013-04-13 19:30:00,55.7,16.9,27.20,NNW,328,7.0,18.8,21,0.00,--,--,0.00,awk and wget,2013-04-13 23:30:00,
2013-04-13 19:40:00,55.6,15.9,27.21,NNW,334,17.1,17.1,20,0.00,--,--,0.00,awk and wget,2013-04-13 23:40:00,
2013-04-13 19:45:00,55.4,16.2,27.21,NNW,334,5.1,16.0,21,0.00,--,--,0.00,awk and wget,2013-04-13 23:45:00,
2013-04-13 19:50:00,55.3,16.0,27.21,North,357,4.6,18.9,20,0.00,--,--,0.00,awk and wget,2013-04-13 23:50:00,
2013-04-13 20:00:00,54.7,16.6,27.21,NNW,329,8.7,18.9,21,0.00,--,--,0.00,awk and wget,2013-04-14 00:00:00,
2013-04-13 20:10:00,53.7,16.9,27.22,NNW,328,7.4,16.7,23,0.00,--,--,0.00,awk and wget,2013-04-14 00:10:00,
2013-04-13 20:15:00,54.1,16.8,27.22,NNW,338,6.6,16.7,22,0.00,--,--,0.00,awk and wget,2013-04-14 00:15:00,
2013-04-13 20:20:00,54.1,16.8,27.22,NNW,332,12.3,15.5,22,0.00,--,--,0.00,awk and wget,2013-04-14 00:20:00,
2013-04-13 20:30:00,53.7,17.2,27.22,NNW,340,7.3,13.7,23,0.00,--,--,0.00,awk and wget,2013-04-14 00:30:00,
2013-04-13 20:40:00,52.8,17.3,27.22,NNW,328,4.4,13.7,24,0.00,--,--,0.00,awk and wget,2013-04-14 00:40:00,
2013-04-13 20:50:00,52.5,17.9,27.23,NNW,331,1.2,11.2,25,0.00,--,--,0.00,awk and wget,2013-04-14 00:50:00,
2013-04-13 21:00:00,52.5,17.5,27.23,NNW,333,7.3,14.9,24,0.00,--,--,0.00,awk and wget,2013-04-14 01:00:00,
2013-04-13 21:05:00,52.5,17.4,27.23,NNW,329,16.2,16.2,24,0.00,--,--,0.00,awk and wget,2013-04-14 01:05:00,
2013-04-13 21:10:00,52.7,17.7,27.23,NNW,339,6.3,14.9,24,0.00,--,--,0.00,awk and wget,2013-04-14 01:10:00,
2013-04-13 21:20:00,51.9,18.3,27.24,NNW,334,5.8,14.9,26,0.00,--,--,0.00,awk and wget,2013-04-14 01:20:00,
2013-04-13 21:25:00,52.3,18.5,27.24,NNW,331,15.3,15.3,26,0.00,--,--,0.00,awk and wget,2013-04-14 01:25:00,
2013-04-13 21:30:00,52.5,18.1,27.24,NNW,334,9.5,14.9,25,0.00,--,--,0.00,awk and wget,2013-04-14 01:30:00,
2013-04-13 21:35:00,52.2,18.7,27.24,NNW,337,8.4,12.5,26,0.00,--,--,0.00,awk and wget,2013-04-14 01:35:00,
2013-04-13 21:40:00,51.7,19.1,27.24,NNW,329,7.3,16.0,27,0.00,--,--,0.00,awk and wget,2013-04-14 01:40:00,
2013-04-13 21:50:00,50.1,19.4,27.24,NNW,330,5.6,16.0,29,0.00,--,--,0.00,awk and wget,2013-04-14 01:50:00,
2013-04-13 22:00:00,49.2,20.8,27.25,NNW,329,8.0,10.3,32,0.00,--,--,0.00,awk and wget,2013-04-14 02:00:00,
2013-04-13 22:10:00,47.2,24.7,27.25,NNW,343,2.1,10.1,40,0.00,--,--,0.00,awk and wget,2013-04-14 02:10:00,
2013-04-13 22:15:00,47.5,21.8,27.25,NNW,334,9.7,11.6,35,0.00,--,--,0.00,awk and wget,2013-04-14 02:15:00,
2013-04-13 22:20:00,47.6,21.6,27.25,NNW,347,1.4,11.6,35,0.00,--,--,0.00,awk and wget,2013-04-14 02:20:00,
2013-04-13 22:30:00,47.3,22.0,27.25,NNW,330,11.5,12.5,36,0.00,--,--,0.00,awk and wget,2013-04-14 02:30:00,
2013-04-13 22:40:00,49.2,20.3,27.26,NNW,336,10.7,14.9,31,0.00,--,--,0.00,awk and wget,2013-04-14 02:40:00,
2013-04-13 22:50:00,48.1,21.2,27.26,NNW,333,3.1,13.9,34,0.00,--,--,0.00,awk and wget,2013-04-14 02:50:00,
2013-04-13 22:55:00,48.0,22.1,27.26,ESE,107,5.0,13.9,35,0.00,--,--,0.00,awk and wget,2013-04-14 02:55:00,
2013-04-13 23:00:00,48.2,22.9,27.26,NNW,333,3.7,13.0,36,0.00,--,--,0.00,awk and wget,2013-04-14 03:00:00,
2013-04-13 23:10:00,48.3,21.0,27.26,NNW,331,2.9,10.8,33,0.00,--,--,0.00,awk and wget,2013-04-14 03:10:00,
2013-04-13 23:15:00,48.7,21.5,27.26,NNW,336,3.2,12.2,33,0.00,--,--,0.00,awk and wget,2013-04-14 03:15:00,
2013-04-13 23:20:00,47.6,23.1,27.26,NNW,336,2.0,12.2,37,0.00,--,--,0.00,awk and wget,2013-04-14 03:20:00,
2013-04-13 23:30:00,47.5,22.5,27.26,NNW,333,8.9,15.4,37,0.00,--,--,0.00,awk and wget,2013-04-14 03:30:00,
2013-04-13 23:40:00,48.7,21.8,27.26,NNW,335,6.2,19.2,34,0.00,--,--,0.00,awk and wget,2013-04-14 03:40:00,
2013-04-13 23:45:00,48.1,22.4,27.26,North,351,0.4,19.2,35,0.00,--,--,0.00,awk and wget,2013-04-14 03:45:00,
2013-04-13 23:50:00,47.3,22.9,27.27,NNW,331,2.6,19.2,37,0.00,--,--,0.00,awk and wget,2013-04-14 03:50:00,
2013-04-13 23:55:00,47.2,23.4,27.27,NNW,331,10.2,12.3,38,0.00,--,--,0.00,awk and wget,2013-04-14 03:55:00,